           3 14  04 46.53  -18 29.9   4.212  4.877    15.2 / 263  16.3  117  .52

           4 14  04 45.47  -18 31.8   4.212  4.868    15.1 / 263  16.3  125  .41

           5 14  04 44.42  -18 33.6   4.212  4.858    14.9 / 264  16.3  131  .31

           6 14  04 43.38  -18 35.1   4.213  4.849    14.7 / 264  16.3  136  .21

           7 14  04 42.35  -18 36.5   4.214  4.840    14.6 / 265  16.3  137  .12

           8 14  04 41.33  -18 37.8   4.215  4.831    14.4 / 266  16.3  133  .06

           9 14  04 40.31  -18 38.8   4.216  4.822    14.2 / 266  16.2  127  .01

          10 14  04 39.31  -18 39.8   4.218  4.813    14.1 / 267  16.2  118  .00

          11 14  04 38.32  -18 40.5   4.219  4.804    13.9 / 268  16.2  107  .02

          12 14  04 37.35  -18 41.1   4.221  4.795    13.7 / 268  16.2   96  .07

          13 14  04 36.38  -18 41.5   4.223  4.786    13.5 / 269  16.2   85  .14

          14 14  04 35.43  -18 41.8   4.226  4.777    13.3 / 269  16.2   75  .22

          15 14  04 34.49  -18 41.9   4.228  4.768    13.1 / 270  16.2   65  .32

          16 14  04 33.57  -18 41.9   4.231  4.759    13.0 / 271  16.2   57  .43

          17 14  04 32.65  -18 41.7   4.234  4.750    12.8 / 271  16.2   50  .53

          18 14  04 31.76  -18 41.4   4.237  4.740    12.6 / 272  16.2   45  .63

          19 14  04 30.87  -18 40.9   4.240  4.731    12.4 / 273  16.2   43  .72

          20 14  04 30.00  -18 40.3   4.244  4.722    12.2 / 273  16.2   44  .80

          21 14  04 29.15  -18 39.6   4.248  4.713    12.0 / 274  16.2   47  .87

          22 14  04 28.31  -18 38.7   4.251  4.704    11.7 / 275  16.2   52  .93

          23 14  04 27.49  -18 37.7   4.255  4.695    11.5 / 276  16.2   59  .97

          24 14  04 26.68  -18 36.6   4.259  4.686    11.3 / 276  16.2   67  .99

          25 14  04 25.89  -18 35.3   4.264  4.677    11.1 / 277  16.2   75 1.00

          26 14  04 25.11  -18 34.0   4.268  4.668    10.9 / 278  16.2   84  .99

          27 14  04 24.35  -18 32.5   4.272  4.658    10.7 / 279  16.2   93  .96

          28 14  04 23.61  -18 30.9   4.277  4.649    10.5 / 279  16.2  102  .91

          29 14  04 22.88  -18 29.2   4.282  4.640    10.3 / 280  16.2  111  .85

          30 14  04 22.17  -18 27.4   4.286  4.631    10.1 / 281  16.2  120  .77

          31 14  04 21.48  -18 25.5   4.291  4.622     9.8 / 282  16.1  128  .68

     Feb.  1 14  04 20.80  -18 23.5   4.296  4.613     9.6 / 283  16.1  134  .58

NAKANO

         **** Don't distribute anyone except personal use only ****

                (C) Copyright 2004 OAA/ComputingSection

write mail from CFAD0::NAKANO on 2004-12-24 05:52:00(JST).

 

    C/2004 B1 (LINEAR)                                                    

Epoch 2006 Jan. 25.0 TT = JDT 2453760.5  

T 2006 Feb. 8.10811 TT                                  Nakano

q   1.6021997            (2000.0)            P               Q

z  -0.0005732      Peri.  327.91394     +0.25801714     -0.31951881

 +/-0.0002240      Node   272.80169     -0.57379782     -0.80994088

e   1.0009185      Incl.  114.09542     -0.77729224     +0.49183686

From 72 observations 2004 Jan. 28-Sept.14, mean residual 0".40.

   (1/a)org.= +0.000259, (1/a)fut.= -0.000257 (+/-0.000224), Q= 6.

Residuals in seconds of arc 

2004/                     040130 G90  0.1+  0.0     040216 246  0.3+  0.1-  

040128 608  0.3-  0.7-    040130 G90  0.2-  0.3+    040216 246  0.3+  0.8+  

040128 608  0.4-  0.9-    040130 118  0.3-  0.3-    040216 246  0.1+  0.5+  

040128 608  0.5+  0.5+    040130 118  0.1-  0.3-    040216 246  0.1+  0.6+  

040129 704  0.0   0.0     040130 118  0.2-  0.1+    040216 246  0.2+  0.0   

040129 704  0.8+  0.3+    040130 118  0.3+  0.6-    040216 104  0.1-  0.4+  

040129 704  0.4-  0.1-    040130 118  0.0   0.1-    040216 104  0.2-  0.4+  

040129 704  0.6-  0.0     040131 704  0.2-  0.1-    040217 246  0.5+  0.1+  

040130 673  0.1-  0.0     040131 704  0.2+  0.1-    040217 246  0.1+  0.3+  

040130 673  0.0   0.1-    040131 704  0.3-  0.4+    040217 246  0.2+  0.5-  

040130 673  0.2-  0.0     040209 204  1.4-  0.3+    040217 246  0.4+  0.2-  

040130 448  1.3+  0.4-    040209 204  0.5-  0.0     040217 246  1.0-  0.5-  

040130 673  0.1-  0.1-    040209 204  0.1+  0.6-    040218 360  0.2+  0.2+  

040130 448  0.3-  0.2+    040210 360  0.2-  0.1+    040218 360  0.0   0.0   

040130 673  0.1-  0.3-    040210 360  0.2+  0.0     040220 372  0.4+  1.4-  

040130 448  0.2+  0.2+    040210 360  0.4-  0.2+    040220 372  0.1+  0.5-  

040130 448  0.2+  0.2+    040212 360  0.1+  0.0     040220 215  0.2-  0.2-  

040130 704  0.7+  0.9+    040212 360  0.0   0.1+    040220 215  0.2-  0.5+  

040130 704  0.3+  0.2-    040213 213  0.2-  0.2-    040912 D74  0.2-  0.2+  

040130 704  0.1-  0.4+    040213 213  1.2-  0.5+    040912 D74  0.1-  0.3+  

040130 704  0.3+  0.3+    040213 J87  0.4+  0.4-    040912 D74  0.0   0.0   

040130 854  0.0   0.1-    040213 J87  0.6+  0.5-    040914 D74  0.1+  0.2-  

040130 854  0.2-  0.0     040213 J87  0.8+  0.2-    040914 D74  0.1+  0.2-  

040130 854  0.2+  0.2+    040216 104  0.4-  0.1-                            

040130 G90  0.1-  0.1+    040216 246  0.2+  0.5+                            



NAKANO

         **** Don't distribute anyone except personal use only ****

                (C) Copyright 2004 OAA/ComputingSection

write mail from CFAD0::NAKANO on 2004-10-04 01:08:29(JST).

 



◎C/2004 B1の軌道と予報位置です



 那賀川の堀寿夫氏と前野拓氏から,2月20日で止まっていたこの彗星の

9月12日の観測の報告がありました.彼らの CCD全光度は,17.0等でした.

なお,この観測の確認には,もう1夜の観測が必要となります.この彗星

は,2005年末以後に11等級まで明るくなります.



    C/2004 B1 (LINEAR)                                                    

Epoch 2006 Jan. 25.0 TT = JDT 2453760.5  

T 2006 Feb. 8.20781 TT                                  Nakano

q   1.6023408            (2000.0)            P               Q

z  -0.0004755      Peri.  327.91915     +0.25796928     -0.31952857

 +/-0.0002413      Node   272.80120     -0.57387203     -0.80988858

e   1.0007619      Incl.  114.09405     -0.77725333     +0.49191664

From 70 observations 2004 Jan. 28-Sept. 12, mean residual 0".40.

   (1/a)org.= +0.000357, (1/a)fut.= -0.000160 (+/-0.000241), Q= 6.

 

Date/        TT  R.A.(2000) Decl.     Delta   r     Daily motion  Mag.  Moon Age

              h    h  m       。  ,                      ,  / PA 。  m1      。

2004 Sept.10 18  06 00.06  -03 58.2   5.985  5.888     7.3 / 168  17.7   46  .15

          11 18  06 00.16  -04 05.4   5.962  5.879     7.4 / 170  17.6   55  .08

          12 18  06 00.25  -04 12.7   5.938  5.871     7.4 / 171  17.6   65  .04

          13 18  06 00.33  -04 20.0   5.914  5.862     7.5 / 172  17.6   75  .01

          14 18  06 00.39  -04 27.4   5.890  5.853     7.5 / 174  17.6   86  .00

          15 18  06 00.45  -04 34.8   5.866  5.845     7.6 / 175  17.6   97  .02

          16 18  06 00.49  -04 42.3   5.842  5.836     7.6 / 176  17.6  108  .05

          17 18  06 00.53  -04 49.9   5.819  5.828     7.7 / 177  17.6  119  .11

          18 18  06 00.55  -04 57.6   5.795  5.819     7.7 / 179  17.6  130  .19

          19 18  06 00.56  -05 05.4   5.771  5.811     7.8 / 180  17.5  139  .29

          20 18  06 00.56  -05 13.2   5.747  5.802     7.9 / 181  17.5  145  .40

          21 18  06 00.55  -05 21.0   5.723  5.793     7.9 / 183  17.5  147  .51

          22 18  06 00.53  -05 29.0   5.699  5.785     8.0 / 184  17.5  143  .62

          23 18  06 00.49  -05 37.0   5.675  5.776     8.1 / 185  17.5  136  .73

          24 18  06 00.44  -05 45.0   5.652  5.767     8.2 / 186  17.5  127  .83

          25 18  06 00.38  -05 53.2   5.628  5.759     8.3 / 188  17.5  116  .90

          26 18  06 00.31  -06 01.4   5.604  5.750     8.4 / 189  17.4  104  .96

          27 18  06 00.22  -06 09.6   5.581  5.742     8.5 / 190  17.4   93  .99

          28 18  06 00.12  -06 18.0   5.557  5.733     8.6 / 191  17.4   82 1.00

          29 18  06 00.01  -06 26.4   5.533  5.724     8.7 / 192  17.4   71  .98

          30 18  05 59.89  -06 34.8   5.510  5.716     8.8 / 194  17.4   61  .95

     Oct.  1 18  05 59.75  -06 43.3   5.486  5.707     8.9 / 195  17.4   52  .89

           2 18  05 59.60  -06 51.9   5.463  5.698     9.0 / 196  17.4   44  .82

           3 18  05 59.43  -07 00.5   5.440  5.690     9.1 / 197  17.3   38  .74

           4 18  05 59.25  -07 09.2   5.416  5.681     9.2 / 198  17.3   35  .66

           5 18  05 59.06  -07 17.9   5.393  5.672     9.3 / 199  17.3   36  .56

           6 18  05 58.85  -07 26.7   5.370  5.664     9.4 / 200  17.3   40  .47

           7 18  05 58.63  -07 35.6   5.347  5.655     9.6 / 202  17.3   46  .38

           8 18  05 58.39  -07 44.5   5.324  5.646     9.7 / 203  17.3   54  .28

           9 18  05 58.14  -07 53.4   5.301  5.638     9.8 / 204  17.3   63  .20

          10 18  05 57.88  -08 02.4   5.279  5.629    10.0 / 205  17.2   73  .13

          11 18  05 57.60  -08 11.4   5.256  5.620    10.1 / 206  17.2   83  .07

          12 18  05 57.30  -08 20.5   5.234  5.612    10.2 / 207  17.2   94  .02

          13 18  05 56.99  -08 29.6   5.211  5.603    10.4 / 208  17.2  105  .00

          14 18  05 56.67  -08 38.8   5.189  5.594    10.5 / 209  17.2  116  .01

          15 18  05 56.33  -08 48.0   5.167  5.586    10.6 / 210  17.2  126  .03

          16 18  05 55.97  -08 57.3   5.145  5.577    10.8 / 211  17.2  135  .09

          17 18  05 55.60  -09 06.5   5.123  5.568    10.9 / 212  17.1  141  .17

          18 18  05 55.21  -09 15.8   5.102  5.560    11.1 / 213  17.1  143  .26

          19 18  05 54.81  -09 25.2   5.080  5.551    11.2 / 214  17.1  140  .37

          20 18  05 54.39  -09 34.5   5.059  5.542    11.4 / 214  17.1  134  .48

          21 18  05 53.95  -09 43.9   5.038  5.533    11.5 / 215  17.1  125  .59

          22 18  05 53.50  -09 53.3   5.017  5.525    11.7 / 216  17.1  115  .70

          23 18  05 53.03  -10 02.7   4.996  5.516    11.8 / 217  17.1  105  .80

